#timestamp,LO_Frequency,Hit 
1499630415.5,286047003.9,N
1499630435.3,286047003.9,N
1499630455.2,286047004.0,N
1499630475.9,286047004.1,N
1499630495.7,286047004.0,N
1499630515.6,286047004.2,N
1499630535.4,286047001.4,N
1499630555.2,286047004.3,N
1499630575.1,286047004.0,N
1499630576.0,286047004.0,N
1499630595.8,286047004.2,N
1499630615.6,286047003.6,N
1499630635.4,286047003.3,N
1499630655.3,286047003.8,N
1499630675.1,286047005.4,N
1499630695.8,286047006.0,N
1499630715.7,286047005.4,N
1499630735.5,286047005.4,N
1499630755.3,286047005.5,N
1499630775.2,286047005.2,N
1499630795.9,286047007.0,N
1499630815.7,286047004.6,N
1499630835.6,286047009.2,N
1499630855.4,286047008.9,N
1499630875.2,286047009.2,N
1499630895.1,286047006.1,N
1499630896.0,286047006.1,N
1499630915.8,286047008.8,N
1499630935.6,286047006.1,N
1499630955.5,286047007.1,N
1499630975.3,286047004.7,N
1499630995.1,286047007.2,N
1499631015.9,286047007.2,N
1499631035.7,286047006.6,N
1499631055.5,286047008.7,N
1499631075.3,286047006.7,N
1499631095.2,286047007.7,N
1499631115.0,286047008.9,N
1499631115.9,286047008.9,N
1499631135.7,286047008.4,N
1499631155.6,286047009.2,N
1499631175.4,286047007.1,N
1499631195.2,286047009.2,N
1499631215.1,286047009.1,N
1499631216.0,286047009.1,N
1499631235.8,286047006.3,N
1499631255.6,286047006.8,N
1499631275.5,286047007.3,N
1499631295.3,286047006.5,N
1499631315.1,286047006.7,N
1499631335.9,286047006.9,N
1499631355.7,286047007.4,N
1499631375.5,286047006.3,N
1499631395.4,286047008.8,N
1499631415.2,286047009.0,N
1499631435.0,286047006.1,N
1499631435.9,286047006.1,N
1499631455.7,286047006.1,N
1499631475.6,286047006.7,N
1499631495.4,286047006.3,N
1499631515.2,286047008.6,N
1499631535.1,286047008.1,N
1499631536.0,286047008.1,N
1499631555.8,286047009.5,N
1499631575.6,286047009.8,N
1499631595.5,286047010.8,N
1499631615.3,286047009.3,N
1499631635.1,286047012.1,N
1499631655.9,286047012.0,N
1499631675.7,286047009.3,N
1499631695.5,286047012.3,N
1499631715.4,286047011.1,N
1499631735.2,286047009.8,N
1499631755.0,286047009.7,N
1499631755.9,286047009.7,N
1499631775.8,286047011.6,N
1499631795.6,286047009.3,N
1499631815.4,286047011.8,N
1499631835.2,286047011.6,N
1499631855.1,286047011.7,N
1499631856.0,286047011.7,N
1499631875.8,286047011.4,N
1499631895.6,286047012.3,N
1499631915.5,286047011.1,N
1499631935.3,286047010.9,N
1499631955.1,286047012.2,N
1499631975.9,286047012.1,N
1499631995.7,286047011.1,N
1499632015.5,286047013.1,N
1499632035.4,286047009.3,N
1499632055.2,286047012.0,N
1499632075.0,286047013.9,N
1499632075.9,286047013.9,N
1499632095.8,286047013.0,N
1499632115.6,286047012.8,N
1499632135.4,286047012.5,N
1499632155.3,286047011.5,N
1499632175.1,286047011.2,N
1499632176.0,286047011.2,N
1499632195.8,286047015.6,N
1499632215.7,286047013.3,N
1499632235.5,286047013.0,N
1499632255.3,286047013.6,N
1499632275.1,286047011.0,N
1499632295.9,286047013.6,N
1499632315.7,286047012.7,N
1499632335.5,286047015.1,N
1499632355.4,286047015.1,N
1499632375.2,286047014.3,N
1499632395.0,286047016.7,N
1499632395.9,286047016.7,N
1499632415.8,286047014.2,N
1499632435.6,286047014.8,N
1499632455.4,286047015.2,N
1499632475.3,286047018.5,N
1499632495.1,286047018.0,N
1499632496.0,286047018.0,N
1499632515.8,286047017.0,N
1499632535.7,286047016.6,N
1499632555.5,286047018.5,N
1499632575.3,286047019.9,N
1499632595.2,286047017.4,N
1499632615.9,286047018.2,N
1499632635.7,286047016.4,N
1499632655.6,286047017.6,N
1499632675.4,286047018.9,N
1499632695.2,286047017.9,N
1499632715.0,286047018.5,N
1499632716.0,286047018.5,N
1499632735.8,286047018.8,N
1499632755.6,286047016.6,N
1499632775.4,286047018.5,N
1499632795.3,286047017.8,N
1499632815.1,286047017.4,N
1499632835.8,286047018.0,N
1499632855.7,286047015.8,N
1499632875.5,286047018.8,N
1499632895.3,286047018.4,N
1499632915.2,286047018.4,N
1499632935.9,286047018.6,N
1499632955.7,286047019.9,N
1499632975.6,286047020.0,N
1499632995.4,286047017.3,N
1499633015.2,286047018.4,N
1499633035.0,286047019.2,N
1499633036.0,286047019.2,N
1499633055.8,286047018.9,N
1499633075.6,286047021.8,N
1499633095.4,286047019.0,N
1499633115.3,286047019.3,N
1499633135.1,286047019.9,N
1499633155.8,286047021.9,N
1499633175.7,286047022.0,N
1499633195.5,286047020.0,N
1499633215.3,286047020.2,N
1499633235.2,286047018.9,N
1499633255.9,286047022.0,N
1499633275.7,286047021.4,N
1499633295.6,286047021.2,N
1499633315.4,286047021.9,N
1499633335.2,286047021.6,N
1499633355.1,286047021.7,N
1499633356.0,286047021.7,N
1499633375.8,286047021.5,N
1499633395.6,286047021.1,N
1499633415.5,286047021.8,N
1499633435.3,286047023.6,N
1499633455.1,286047023.0,N
1499633475.8,286047025.0,N
1499633495.7,286047024.8,N
1499633515.5,286047022.9,N
1499633535.3,286047025.1,N
1499633555.2,286047026.3,N
1499633575.9,286047024.6,N
1499633595.7,286047026.5,N
1499633615.6,286047024.3,N
1499633635.4,286047024.4,N
1499633655.2,286047026.5,N
1499633675.1,286047026.1,N
1499633676.0,286047026.1,N
1499633695.8,286047024.1,N
1499633715.6,286047023.7,N
1499633735.5,286047027.8,N
1499633755.3,286047028.2,N
1499633775.1,286047025.7,N
1499633795.9,286047028.0,N
1499633815.7,286047026.2,N
1499633835.5,286047027.8,N
1499633855.3,286047026.5,N
1499633875.2,286047028.1,N
1499633895.0,286047025.4,N
1499633895.9,286047025.4,N
1499633915.7,286047026.7,N
1499633935.6,286047025.5,N
1499633955.4,286047025.6,N
1499633975.2,286047024.5,N
1499633995.1,286047026.7,N
1499633996.0,286047026.7,N
